Regional Weather Roundup
Issued by NWS

Home | Current Version | Previous Version | Graphics & Text | Print | Product List | Glossary On
Versions: 1 2 3 4 5 6 7 8 9 10 11 12 13 14 15 16 17 18 19 20 21 22 23 24 25 26 27 28 29 30 31 32 33 34 35 36 37 38 39 40 41 42 43 44 45 46 47 48 49 50
886
ASUS43 KTOP 252359
RWRKS

WEATHER ROUNDUP FOR KANSAS
NATIONAL WEATHER SERVICE GOODLAND KS
700 PM CDT MON SEP 25 2017

NOTE:  "FAIR" INDICATES FEW OR NO CLOUDS BELOW 12,000 FEET WITH NO
SIGNIFICANT WEATHER AND/OR OBSTRUCTIONS TO VISIBILITY.

KSZ001>006-013>018-027>032-041>047-260100-
NORTHWEST KANSAS

CITY           SKY/WX    TMP DP  RH WIND       PRES   REMARKS
GOODLAND       CLOUDY    49  48  97 N15       30.03S
6HR MIN TEMP:  48; 6HR MAX TEMP:  51; 6HR PCP:  0.02;

HAYS           CLOUDY    55  54  96 N8        29.99S
HILL CITY      CLOUDY    54  53  97 N10       29.99F
6HR MIN TEMP:  54; 6HR MAX TEMP:  56; 6HR PCP:  0.02;

RUSSELL        LGT RAIN  57  56  96 NW10      29.97R
6HR MIN TEMP:  57; 6HR MAX TEMP:  60;

$$

KSZ061>065-074>080-084>089-260100-
SOUTHWEST KANSAS

CITY           SKY/WX    TMP DP  RH WIND       PRES   REMARKS
DODGE CITY     LGT RAIN  56  55  97 NE13G18   29.96R
6HR MIN TEMP:  56; 6HR MAX TEMP:  58; 6HR PCP:  0.14;

ELKHART          N/A     55  56 100 N7          N/A
GARDEN CITY    CLOUDY    54  52  93 N15       29.99R FOG
6HR MIN TEMP:  54; 6HR MAX TEMP:  55; 6HR PCP:  0.63;

GREAT BEND     LGT RAIN  58  57  97 NW7       29.99R
LIBERAL        CLOUDY    58  55  90 N12       29.98R
$$

KSZ066>073-081>083-090>101-260100-
SOUTHEAST KANSAS

CITY           SKY/WX    TMP DP  RH WIND       PRES   REMARKS
CHANUTE        CLOUDY    79  67  66 S5        29.88R
6HR MIN TEMP:  79; 6HR MAX TEMP:  87;

COFFEYVILLE    CLOUDY    80  67  64 S3        29.86R
6HR MIN TEMP:  80; 6HR MAX TEMP:  88;

HUTCHINSON     RAIN      64  63  96 SE6       29.95R FOG
6HR MIN TEMP:  64; 6HR MAX TEMP:  67; 6HR PCP:  1.13;

NEWTON         LGT RAIN  64  62  93 W6        29.95R
PARSONS        CLOUDY    78  67  68 CALM      29.88R
6HR MIN TEMP:  78; 6HR MAX TEMP:  88; 6HR PCP: TRACE;

WICHITA INTL   LGT RAIN  65  65 100 NW7       29.94R
6HR MIN TEMP:  65; 6HR MAX TEMP:  85; 6HR PCP:  1.58;

WICHITA JABRA  RAIN      64  64 100 NW7       29.94R FOG
6HR MIN TEMP:  64; 6HR MAX TEMP:  85;

WICHITA MCCONL RAIN      66  64  94 NW6       29.95R FOG
WINFIELD       CLOUDY    68  68 100 NW14      29.91S
6HR MIN TEMP:  67; 6HR MAX TEMP:  88; 6HR PCP:  0.79;

$$

KSZ007>012-019>026-033>040-048>060-102>105-260100-
NORTHEAST KANSAS

CITY           SKY/WX    TMP DP  RH WIND       PRES   REMARKS
CONCORDIA      LGT RAIN  60  60 100 N8        29.96R
6HR MIN TEMP:  60; 6HR MAX TEMP:  65;

EMPORIA        LGT RAIN  67  66  97 NW7       29.93R
6HR MIN TEMP:  67; 6HR MAX TEMP:  87; 6HR PCP:  0.17;

LAWRENCE       PTCLDY    76  68  76 NW7       29.86R
6HR MIN TEMP:  76; 6HR MAX TEMP:  87;

MANHATTAN      LGT RAIN  66  65  96 N3        29.91R
6HR MIN TEMP:  66; 6HR MAX TEMP:  75; 6HR PCP:  0.42;

OLATHE IND     CLEAR     77  66  68 S7        29.88R
6HR MIN TEMP:  77; 6HR MAX TEMP:  86;

OLATHE EXE     CLEAR     77  67  71 S5        29.88R
6HR MIN TEMP:  76; 6HR MAX TEMP:  85;

SALINA         LGT RAIN  68  65  90 CALM      29.94S
6HR MIN TEMP:  67; 6HR MAX TEMP:  68; 6HR PCP:  0.65;

TOPEKA BILLARD CLOUDY    71  67  87 W14G22    29.90R
6HR MIN TEMP:  71; 6HR MAX TEMP:  88;

TOPEKA FORBES  MOCLDY    71  65  81 NW22      29.90R
6HR MIN TEMP:  71; 6HR MAX TEMP:  89;

$$




USA.gov is the U.S. government's official web portal to all federal, state and local government web resources and services.